Terminal Aerodrome Forecast
Issued by NWS North Platte, NE

Home | Current Version | Previous Version | Text Only | Print | Product List | Glossary Off
Versions: 1 2 3 4 5 6 7 8 9 10 11 12 13 14 15 16 17 18 19

000
FTUS43 KLBF 261500 AAD
TAFVTN
TAF AMD
KVTN 261530Z 2616/2712 33012G20KT P6SM BKN020
     FM261700 35015G21KT P6SM SCT050
     FM270000 34009KT P6SM SKC=

USA.gov is the U.S. government's official web portal to all federal, state and local government web resources and services.